Startseite
Über Mich
AHP4
Galerie
Sehschlangen
Tourenbuch
Bookmarks
Elektronik
Bewertung
Geschichten
[Tagesmessung] [Jahreswerte] [Information]

Messwerte vom 09.03.2022

Die letzten Messwerte von 23:58:45 Uhr:
KategorieMesswert
Temperatur [°C]-1
Luftdruck [mBar]1010
Sonneneinstrahlung0
Wind [km/h]0 aus Nordost
Niederschlag [l/m²]0
rel.Luftfeucht.76.7%
CO2 [ppm]713

Diagramme
Messwerte vom 09.03.2022
Tagesaggregation
KategorieMinimumMaximumSchnittSumme
Temperatur [°C]-4153.0188
Luftdruck [mBar]100810111009.5500
Sonneneinstrahlung24698.2229
Wind [km/h]0
rF [%]29.790.966.84
Niederschlag [l/m²]0
CO2 [ppm]402736586.2
Einordnung alsFrosttag
Vegetationstag

Messungen an benachbarten Tagen: Zur Jahresaggregation 2022
Tabelle aller Messwerte
UhrzeitTemperatur [°C]Luftdruck [mBar]SonneWind [km/h]RichtungRegen [l/m²]rF [%]CO2 [ppm]
00:01:46 -2 1009 0 0 O 0 81.5 574
00:04:46 -2 1009 0 0 O 0 81.3 577
00:07:46 -2 1009 0 0 O 0 81.3 579
00:10:48 -2 1009 0 0 O 0 81.9 576
00:13:45 -2 1009 0 0 O 0 81.9 574
00:16:47 -2 1009 0 0 S 0 81.6 577
00:19:48 -2 1010 0 0 S 0 81.9 582
00:22:49 -2 1009 0 0 S 0 82.3 583
00:25:45 -2 1009 0 0 S 0 81.5 574
00:28:47 -2 1009 0 0 S 0 81 571
00:31:50 -2 1009 0 0 S 0 81 568
00:34:47 -2 1009 0 0 S 0 81.5 574
00:37:47 -2 1009 0 0 S 0 81.6 574
00:40:46 -2 1009 0 0 S 0 82 567
00:43:48 -2 1009 0 0 S 0 82.5 569
00:46:46 -1 1009 0 0 S 0 82.3 568
00:49:44 -2 1009 0 0 S 0 81.7 571
00:52:46 -2 1009 0 0 S 0 81.4 569
00:55:45 -2 1009 0 0 NO 0 81.4 568
00:58:47 -1 1009 0 0 NO 0 82.3 571
01:01:46 -1 1010 0 0 NO 0 82.5 575
01:04:48 -1 1009 0 0 SO 0 82 573
01:07:47 -1 1009 0 0 SO 0 81.3 564
01:10:49 -1 1009 0 0 SO 0 80.9 568
01:13:49 -1 1009 0 0 SO 0 80.6 568
01:16:46 -1 1009 0 0 SO 0 80.5 565
01:19:49 -1 1009 0 0 SO 0 80.1 562
01:22:46 -2 1009 0 0 SO 0 80.3 562
01:25:48 -2 1008 0 0 SO 0 81 560
01:28:48 -1 1009 0 0 SO 0 81.6 557
01:31:51 -1 1009 0 0 SO 0 81.6 562
01:34:49 -2 1009 0 0 SO 0 81 562
01:37:48 -2 1009 0 0 SO 0 80.8 560
01:40:49 -2 1009 0 0 SO 0 81.3 556
01:43:49 -2 1009 0 0 SO 0 81.4 556
01:46:47 -2 1009 0 0 O 0 81.8 556
01:49:48 -2 1009 0 0 S 0 82.4 559
01:52:50 -2 1009 0 0 S 0 82.3 559
01:55:46 -2 1009 0 0 N 0 82.4 553
01:58:47 -3 1009 0 0 N 0 82.7 557
02:01:47 -3 1009 0 0 N 0 82.9 551
02:04:47 -3 1009 0 0 N 0 83 562
02:07:48 -3 1009 0 0 SO 0 83 562
02:10:49 -3 1009 0 0 SO 0 83.1 557
02:13:48 -3 1009 0 0 SO 0 83.2 557
02:16:49 -3 1009 0 0 SO 0 83.4 553
02:19:49 -3 1009 0 0 SO 0 83.5 553
02:22:48 -3 1009 0 0 SO 0 84 542
02:25:49 -3 1009 0 0 SO 0 84.2 541
02:28:47 -3 1009 0 0 SO 0 84.4 548
02:31:48 -3 1009 0 0 SO 0 83.9 548
02:34:50 -3 1010 0 0 SO 0 83.9 539
02:37:50 -3 1009 0 0 SO 0 83.8 539
02:40:48 -3 1009 0 0 SO 0 83.8 539
02:43:48 -3 1009 0 0 SO 0 84.3 541
02:46:47 -3 1009 0 0 SO 0 84.5 550
02:49:48 -3 1009 0 0 SO 0 84.6 548
02:52:49 -3 1009 0 0 SO 0 84.6 548
02:55:49 -3 1009 0 0 SO 0 84.8 534
02:58:49 -3 1009 0 0 SO 0 84.9 539
03:01:47 -3 1009 0 0 SO 0 85.1 539
03:04:47 -3 1009 0 0 SO 0 85.2 539
03:07:46 -3 1009 0 0 SO 0 85.5 550
03:10:47 -3 1009 0 0 SO 0 85.6 545
03:13:50 -3 1009 0 0 SO 0 85.8 545
03:16:46 -3 1009 0 0 SO 0 85.7 548
03:19:48 -3 1009 0 0 NO 0 86.1 545
03:22:47 -3 1009 0 0 NO 0 87.3 541
03:25:48 -2 1009 0 0 O 0 88.7 540
03:28:49 -2 1009 0 0 O 0 87.9 545
03:31:49 -2 1009 0 0 O 0 86.7 542
03:34:47 -3 1009 0 0 O 0 86 544
03:37:46 -3 1008 0 0 O 0 85.3 544
03:40:46 -3 1010 0 0 S 0 85.3 545
03:43:46 -3 1010 0 0 S 0 86.2 543
03:46:46 -3 1009 0 0 W 0 87.2 540
03:49:48 -3 1010 0 0 O 0 87.6 533
03:52:47 -3 1009 0 0 O 0 87.4 536
03:55:49 -3 1009 0 0 NW 0 87.5 530
03:58:46 -3 1009 0 0 N 0 88.2 536
04:01:46 -3 1010 0 0 N 0 87.7 533
04:04:46 -3 1009 0 0 N 0 87.2 533
04:07:46 -3 1009 0 0 N 0 86.9 545
04:10:45 -3 1009 0 0 N 0 86.7 541
04:13:46 -3 1009 0 0 O 0 86.8 542
04:16:47 -3 1010 0 0 O 0 87.2 542
04:19:46 -3 1009 0 0 O 0 87 541
04:22:45 -4 1009 0 0 O 0 86.8 542
04:25:46 -4 1010 0 0 O 0 86.8 545
04:28:45 -4 1009 0 0 O 0 86.7 544
04:31:46 -4 1009 0 0 O 0 86.6 536
04:34:46 -4 1009 0 0 O 0 86.8 533
04:37:47 -4 1009 0 0 O 0 86.8 530
04:40:49 -4 1009 0 0 O 0 87 526
04:43:45 -4 1009 0 0 O 0 87.1 534
04:46:45 -4 1009 0 0 O 0 87.2 533
04:49:47 -4 1009 0 0 SW 0 87.4 537
04:52:48 -4 1009 0 0 NW 0 87.7 530
04:55:48 -4 1009 0 0 NW 0 88.1 533
04:58:47 -4 1009 0 0 NW 0 88.3 533
05:01:47 -4 1010 0 0 NW 0 87.9 538
05:04:48 -4 1010 0 0 NW 0 87.6 547
05:07:47 -4 1009 0 0 NW 0 87.5 541
05:10:48 -4 1009 0 0 NW 0 87.4 536
05:13:50 -4 1009 0 0 NW 0 87.5 536
05:16:49 -4 1009 0 0 NW 0 87.8 535
05:19:48 -4 1009 0 0 NW 0 88.3 539
05:22:48 -4 1009 0 0 NW 0 88.3 536
05:25:48 -4 1009 0 0 NW 0 88.2 541
05:28:47 -4 1009 0 0 NW 0 88 544
05:31:48 -4 1009 0 0 NW 0 88 542
05:34:46 -4 1009 0 0 O 0 88.1 536
05:37:48 -4 1009 0 0 O 0 88.5 531
05:40:47 -4 1009 0 0 O 0 88.6 530
05:43:45 -4 1009 0 0 O 0 88.9 538
05:46:47 -4 1009 0 0 O 0 88.9 538
05:49:47 -4 1009 0 0 O 0 88.9 536
05:52:48 -4 1009 0 0 O 0 88.8 530
05:55:47 -4 1009 0 0 O 0 88.9 529
05:58:49 -4 1009 0 0 SO 0 89.1 533
06:01:48 -4 1009 0 0 SO 0 89.3 527
06:04:48 -4 1009 0 0 SO 0 89.6 535
06:07:47 -4 1009 0 0 SO 0 89.6 539
06:10:48 -4 1009 0 0 SO 0 89.6 538
06:13:45 -4 1009 0 0 N 0 89.5 538
06:16:46 -4 1009 0 0 N 0 90.1 535
06:19:45 -4 1010 0 0 N 0 90.3 536
06:22:45 -4 1009 4 0 N 0 90.1 530
06:25:47 -4 1010 8 0 N 0 89.9 527
06:28:47 -4 1010 13 0 N 0 89.9 530
06:31:51 -4 1010 21 0 N 0 90.1 528
06:34:46 -4 1010 31 0 N 0 90.2 526
06:37:48 -4 1009 43 0 N 0 90.3 536
06:40:48 -4 1010 56 0 N 0 90.1 536
06:43:49 -4 1010 70 0 N 0 90 534
06:46:48 -4 1010 83 0 S 0 90 532
06:49:47 -4 1009 95 0 S 0 90 542
06:52:49 -4 1010 107 0 S 0 90.1 541
06:55:48 -4 1009 117 0 S 0 90.1 539
06:58:47 -4 1009 126 0 S 0 90.1 547
07:01:47 -4 1010 134 0 S 0 90.1 544
07:04:49 -4 1009 141 0 S 0 90.2 539
07:07:47 -4 1010 147 0 S 0 90.5 530
07:10:47 -4 1009 151 0 S 0 90.4 533
07:13:46 -4 1009 156 0 S 0 90.4 533
07:16:48 -4 1009 159 0 NW 0 90.5 538
07:19:50 -4 1009 162 0 NW 0 90.6 539
07:22:50 -4 1010 164 0 NW 0 90.8 551
07:25:49 -4 1010 167 0 NW 0 90.9 582
07:28:50 -4 1010 169 0 NW 0 90.9 598
07:31:50 -4 1009 171 0 NW 0 90.7 598
07:34:48 -4 1010 172 0 NW 0 90.7 603
07:37:49 -4 1010 174 0 NW 0 90.9 609
07:40:52 -4 1010 175 0 NW 0 90.9 620
07:43:49 -4 1010 177 0 NW 0 90.9 612
07:46:49 -4 1010 178 0 NW 0 90.7 623
07:49:47 -4 1010 179 0 NW 0 90.7 621
07:52:49 -4 1010 180 0 NW 0 90.7 615
07:55:51 -3 1010 180 0 NW 0 90.9 605
07:58:48 -3 1010 181 0 NW 0 90.8 609
08:01:50 -3 1009 182 0 NW 0 90.6 612
08:04:49 -3 1010 183 0 NW 0 90.4 612
08:07:49 -3 1010 183 0 NW 0 90.2 611
08:10:49 -3 1009 184 0 NW 0 90.1 612
08:13:50 -3 1009 184 0 NW 0 90 615
08:16:48 -3 1010 185 0 NW 0 89.9 614
08:19:47 -3 1010 185 0 NW 0 89.9 611
08:22:50 -2 1010 185 0 NO 0 90.1 615
08:25:50 -2 1010 186 0 NO 0 90.2 609
08:28:51 -2 1010 186 0 NO 0 89.9 607
08:31:49 -2 1010 186 0 NO 0 89.5 611
08:34:47 -2 1009 187 0 NO 0 89.6 612
08:37:50 -1 1009 187 0 NO 0 89.4 612
08:40:48 -1 1010 187 0 NO 0 89.4 605
08:43:48 -1 1010 188 0 NO 0 89.3 609
08:46:49 -1 1009 188 0 NO 0 89.3 609
08:49:49 -1 1010 188 0 NO 0 90 606
08:52:47 -1 1010 188 0 N 0 90 606
08:55:48 -1 1010 189 0 NO 0 89.5 609
08:58:48 -1 1010 189 0 NO 0 89.3 606
09:01:51 -1 1009 189 0 NO 0 88.7 597
09:04:48 0 1010 189 0 NO 0 88.6 592
09:07:48 0 1010 190 0 NO 0 89 600
09:10:49 0 1010 190 0 NO 0 88.2 612
09:13:47 1 1010 190 0 NO 0 87.9 609
09:16:52 1 1010 190 0 NO 0 86.4 589
09:19:46 1 1010 191 0 NO 0 85.7 591
09:22:47 1 1010 191 0 O 0 84.8 604
09:25:47 2 1010 191 0 O 0 84.2 612
09:28:47 2 1010 191 0 O 0 83.4 610
09:31:48 2 1010 191 0 O 0 81.8 606
09:34:48 2 1010 192 0 N 0 80.8 597
09:37:47 3 1010 192 0 N 0 79.5 603
09:40:48 3 1010 192 0 N 0 79.2 606
09:43:47 3 1010 193 0 N 0 78.9 609
09:46:47 3 1010 193 0 N 0 78.7 604
09:49:47 3 1010 194 0 S 0 78.7 604
09:52:46 3 1010 194 0 S 0 78.7 612
09:55:49 3 1010 195 0 O 0 78.8 615
09:58:48 3 1010 196 0 N 0 78.3 612
10:01:45 4 1010 197 0 N 0 77.5 618
10:04:48 4 1010 198 0 NW 0 77 615
10:07:50 4 1010 199 0 SW 0 75.9 611
10:10:47 4 1010 200 0 O 0 75.6 606
10:13:48 4 1010 200 0 NO 0 75.4 615
10:16:47 4 1010 201 0 SO 0 74.8 620
10:19:49 5 1010 202 0 NW 0 74.5 615
10:22:47 5 1010 202 0 N 0 73.7 615
10:25:48 5 1010 202 0 NO 0 73.4 615
10:28:47 5 1010 202 0 S 0 72.8 615
10:31:47 5 1010 202 0 N 0 72 612
10:34:46 5 1010 202 0 SO 0 71.3 618
10:37:46 6 1010 202 0 N 0 69.7 612
10:40:48 6 1010 203 0 SO 0 68 629
10:43:52 6 1010 203 0 SO 0 67.4 629
10:46:48 6 1010 203 0 SO 0 66.9 633
10:49:48 6 1010 203 0 SO 0 65.4 630
10:52:47 6 1010 203 0 S 0 65.5 623
10:55:46 7 1010 203 0 W 0 64.3 623
10:58:50 7 1010 204 0 SO 0 62.3 626
11:01:49 7 1010 204 0 S 0 61.8 626
11:04:48 7 1010 204 0 SO 0 61.3 626
11:07:47 7 1010 204 0 O 0 60.8 626
11:10:48 8 1010 204 0 S 0 61.1 626
11:13:46 8 1010 204 0 S 0 59.9 626
11:16:47 8 1010 205 0 SO 0 59.1 626
11:19:49 8 1010 205 0 SO 0 56.2 632
11:22:49 8 1010 205 0 NW 0 54.8 726
11:25:48 8 1010 205 0 NW 0 53.7 720
11:28:51 8 1010 205 0 NW 0 54.8 717
11:31:47 9 1010 206 0 N 0 54.8 718
11:34:46 9 1010 206 0 SO 0 54.1 730
11:37:49 9 1010 206 0 SO 0 52.4 727
11:40:50 9 1010 207 0 SO 0 53 725
11:43:47 10 1010 207 0 N 0 45.9 718
11:46:47 10 1010 207 0 N 0 45.2 719
11:49:46 10 1010 208 0 N 0 43.3 720
11:52:50 11 1010 208 0 NW 0 42.2 718
11:55:48 11 1010 208 0 S 0 45.1 717
11:58:47 11 1010 209 0 O 0 39.3 718
12:01:48 11 1010 209 0 NW 0 39.3 717
12:04:47 12 1010 209 0 O 0 39.7 720
12:07:48 11 1010 210 0 SO 0 38.7 723
12:10:47 12 1010 210 0 S 0 40.5 710
12:13:47 12 1010 210 0 S 0 36 647
12:16:47 12 1010 211 0 N 0 35.6 621
12:19:49 12 1010 211 0 NO 0 36.3 647
12:22:46 12 1010 212 0 O 0 35.8 674
12:25:50 12 1010 213 0 NW 0 34.4 694
12:28:47 12 1010 201 0 NW 0 34.3 611
12:31:46 12 1010 201 0 W 0 34 443
12:34:50 13 1010 202 0 S 0 33.6 410
12:37:51 13 1010 179 0 NW 0 31.8 404
12:40:48 13 1010 180 0 N 0 31.6 407
12:43:47 13 1010 181 0 NW 0 32.1 404
12:46:50 13 1010 183 0 N 0 33.1 402
12:49:47 13 1009 219 0 W 0 33.6 407
12:52:49 14 1010 221 0 N 0 32.8 407
12:55:47 13 1010 222 0 SO 0 32.3 407
12:58:47 14 1010 224 0 N 0 33.8 407
13:01:49 13 1010 225 0 N 0 31.6 422
13:04:49 13 1010 226 0 S 0 35.3 424
13:07:52 14 1010 226 0 NW 0 31.8 428
13:10:46 14 1010 227 0 N 0 30.8 466
13:13:49 14 1010 227 0 N 0 31.2 463
13:16:48 14 1010 228 0 W 0 31.1 466
13:19:48 14 1010 228 0 NW 0 31.1 469
13:22:47 14 1009 228 0 W 0 30.5 477
13:25:48 14 1009 228 0 N 0 30.9 497
13:28:48 14 1010 228 0 NW 0 32.2 500
13:31:48 13 1009 229 0 NO 0 31.6 492
13:34:50 13 1010 229 0 O 0 32 486
13:37:49 13 1009 229 0 NO 0 32.6 492
13:40:49 13 1010 229 0 W 0 32.9 510
13:43:46 13 1010 231 0 O 0 31.8 521
13:46:46 13 1010 232 0 N 0 32.5 526
13:49:47 13 1010 234 0 0 33.3 522
13:52:49 13 1009 235 0 0 33.1 528
13:55:48 13 1009 235 0 N 0 32.8 529
13:58:47 13 1009 241 0 W 0 32.7 545
14:01:47 13 1009 242 0 W 0 33.1 548
14:04:46 13 1009 242 0 0 33.3 567
14:07:47 13 1009 243 0 O 0 33.6 576
14:10:47 13 1010 243 0 SO 0 35.3 573
14:13:48 14 1009 244 0 N 0 33.8 564
14:16:48 14 1010 244 0 NO 0 33.5 579
14:19:50 14 1009 244 0 O 0 32.2 580
14:22:47 13 1010 244 0 SO 0 31.8 594
14:25:49 13 1010 244 0 SO 0 33.4 595
14:28:48 13 1010 245 0 W 0 32.5 594
14:31:47 13 1010 245 0 O 0 32.7 600
14:34:49 14 1010 245 0 NW 0 32.9 606
14:37:49 14 1009 245 0 S 0 33.3 618
14:40:47 14 1009 245 0 N 0 31.1 618
14:43:47 14 1009 246 0 O 0 31.1 615
14:46:49 14 1009 245 0 NO 0 32.2 608
14:49:46 14 1009 245 0 O 0 30.6 612
14:52:46 14 1009 246 0 N 0 31.9 618
14:55:50 14 1010 246 0 NW 0 32.3 630
14:58:49 14 1009 246 0 SO 0 31.8 642
15:01:50 13 1009 246 0 SO 0 32.9 652
15:04:48 14 1010 246 0 N 0 31.3 656
15:07:47 14 1009 246 0 S 0 33 662
15:10:48 15 1010 246 0 O 0 31.3 656
15:13:48 15 1009 246 0 O 0 31.2 667
15:16:50 14 1010 246 0 N 0 29.7 670
15:19:51 14 1009 246 0 NW 0 30.5 669
15:22:45 14 1009 246 0 0 31.5 669
15:25:49 13 1009 246 0 NW 0 31.8 670
15:28:50 13 1010 245 0 N 0 31.8 660
15:31:49 13 1009 246 0 N 0 32.3 668
15:34:47 12 1009 245 0 NO 0 32.7 655
15:37:48 12 1010 244 0 N 0 33.6 670
15:40:47 12 1009 238 0 O 0 34.7 674
15:43:49 12 1009 239 0 N 0 35.2 696
15:46:49 12 1009 243 0 NW 0 34.9 691
15:49:49 12 1009 243 0 SO 0 35.5 694
15:52:50 12 1010 237 0 O 0 36.8 698
15:55:48 12 1009 230 0 O 0 37.5 700
15:58:52 12 1009 229 0 NO 0 37.3 705
16:01:50 12 1009 228 0 N 0 36.6 706
16:04:47 12 1009 225 0 O 0 36 715
16:07:51 12 1009 225 0 SO 0 36.9 723
16:10:46 12 1009 224 0 0 37.6 723
16:13:50 12 1009 223 0 SO 0 37.8 723
16:16:48 12 1009 224 0 SO 0 37.6 726
16:19:50 13 1009 227 0 SO 0 37.2 732
16:22:47 12 1010 218 0 O 0 36.8 732
16:25:51 12 1009 221 0 NO 0 36.5 736
16:28:50 12 1008 228 0 NO 0 37 730
16:31:47 12 1009 233 0 O 0 37.4 712
16:34:47 12 1009 226 0 O 0 37 714
16:37:50 12 1009 233 0 NO 0 36.9 711
16:40:48 12 1009 226 0 O 0 37.2 719
16:43:48 12 1009 214 0 S 0 37.3 712
16:46:47 12 1010 215 0 NW 0 37.6 707
16:49:50 12 1009 108 0 NO 0 37.8 700
16:52:51 11 1009 174 0 SO 0 38.2 443
16:55:50 11 1009 227 0 O 0 38.2 407
16:58:47 11 1009 213 0 N 0 38.3 404
17:01:49 11 1009 212 0 O 0 38.6 405
17:04:50 11 1010 212 0 NO 0 38.6 410
17:07:47 11 1009 217 0 O 0 38.8 434
17:10:50 11 1009 211 0 O 0 39 448
17:13:49 10 1009 203 0 O 0 39.7 451
17:16:46 10 1009 200 0 N 0 39.8 442
17:19:49 10 1009 199 0 NO 0 40 431
17:22:48 10 1009 200 0 O 0 40.1 433
17:25:49 10 1009 196 0 NO 0 40.4 436
17:28:46 10 1009 194 0 0 41.2 433
17:31:47 9 1009 132 0 N 0 42.5 439
17:34:48 9 1009 124 0 NW 0 43.2 408
17:37:49 9 1009 186 0 NO 0 45.2 404
17:40:46 9 1009 183 0 NO 0 45.7 404
17:43:48 8 1009 179 0 NO 0 46.6 404
17:46:45 8 1009 175 0 O 0 47 404
17:49:48 8 1009 170 0 NO 0 47.1 424
17:52:47 8 1009 165 0 NO 0 47.6 422
17:55:49 8 1009 158 0 NO 0 48.1 434
17:58:48 8 1009 151 0 N 0 48.8 449
18:01:48 7 1009 143 0 N 0 49.2 445
18:04:46 7 1009 134 0 O 0 49.9 445
18:07:51 7 1009 123 0 NO 0 50.5 442
18:10:48 7 1009 111 0 NO 0 50.7 443
18:13:46 7 1010 99 0 N 0 51 448
18:16:49 6 1010 85 0 NO 0 51.5 454
18:19:46 6 1009 70 0 NO 0 51.8 471
18:22:47 6 1009 55 0 NO 0 51.9 477
18:25:46 6 1010 41 0 NO 0 52 477
18:28:49 6 1009 29 0 NO 0 52.4 471
18:31:47 6 1009 19 0 NO 0 52.5 477
18:34:47 6 1010 11 0 NO 0 52.7 486
18:37:46 6 1010 6 0 NO 0 52.9 489
18:40:46 5 1010 4 0 NO 0 53.6 486
18:43:48 5 1010 0 0 NO 0 54.2 492
18:46:46 5 1009 0 0 NO 0 54.2 492
18:49:46 5 1009 0 0 NO 0 54.8 500
18:52:46 5 1010 0 0 NO 0 55.3 507
18:55:47 4 1010 0 0 NO 0 55.3 512
18:58:45 4 1010 0 0 NO 0 55.6 512
19:01:47 4 1010 0 0 NO 0 56.3 515
19:04:47 4 1010 0 0 NO 0 56.6 519
19:07:47 4 1010 0 0 NO 0 56.9 518
19:10:49 4 1010 0 0 NO 0 57.3 527
19:13:46 4 1010 0 0 NO 0 57.3 529
19:16:47 4 1010 0 0 NO 0 57.7 524
19:19:46 4 1010 0 0 NO 0 58.5 534
19:22:47 4 1010 0 0 NO 0 58.6 541
19:25:47 3 1010 0 0 NO 0 59 548
19:28:48 3 1010 0 0 NO 0 59.2 548
19:31:46 3 1010 0 0 NO 0 59.5 551
19:34:46 3 1010 0 0 NO 0 60 553
19:37:48 3 1010 0 0 NO 0 60.5 559
19:40:46 3 1010 0 0 NO 0 60.9 571
19:43:47 3 1010 0 0 NO 0 60.8 571
19:46:47 3 1010 0 0 NO 0 60.9 580
19:49:47 3 1010 0 0 NO 0 61.1 577
19:52:49 3 1010 0 0 NO 0 62.4 589
19:55:47 3 1010 0 0 NO 0 62.9 586
19:58:45 3 1010 0 0 NO 0 63 597
20:01:50 2 1010 0 0 NO 0 63 597
20:04:48 2 1010 0 0 NO 0 63.2 609
20:07:47 2 1010 0 0 NO 0 63.6 612
20:10:47 2 1010 0 0 NO 0 63.8 616
20:13:46 2 1010 0 0 NO 0 63.9 609
20:16:48 2 1010 0 0 NO 0 64.2 609
20:19:46 2 1010 0 0 NO 0 64.7 618
20:22:50 2 1010 0 0 NO 0 64.9 625
20:25:47 2 1010 0 0 NO 0 65.4 629
20:28:46 2 1010 0 0 NO 0 65.7 632
20:31:46 2 1010 0 0 NO 0 66.4 619
20:34:46 2 1010 0 0 NO 0 67.1 623
20:37:48 2 1010 0 0 NO 0 67.4 626
20:40:47 2 1010 0 0 NO 0 67.2 632
20:43:47 1 1010 0 0 NO 0 67.1 636
20:46:47 1 1010 0 0 NO 0 67.8 641
20:49:47 1 1010 0 0 NO 0 67.8 639
20:52:48 1 1010 0 0 NO 0 68.1 635
20:55:48 1 1010 0 0 NW 0 68.4 638
20:58:47 1 1010 0 0 N 0 69.7 644
21:01:47 1 1010 0 0 N 0 70.2 653
21:04:45 1 1010 0 0 N 0 71 650
21:07:47 1 1010 0 0 N 0 71.3 656
21:10:45 1 1010 0 0 N 0 72 656
21:13:45 1 1010 0 0 N 0 72 659
21:16:46 1 1010 0 0 N 0 72.4 656
21:19:45 0 1010 0 0 N 0 73.4 664
21:22:44 1 1010 0 0 N 0 74.2 670
21:25:45 0 1010 0 0 N 0 74.3 671
21:28:48 0 1010 0 0 N 0 73.8 670
21:31:47 0 1010 0 0 N 0 73.5 671
21:34:45 0 1010 0 0 N 0 73.4 668
21:37:46 0 1010 0 0 N 0 73.7 674
21:40:45 0 1010 0 0 N 0 74 676
21:43:44 0 1010 0 0 N 0 74.3 688
21:46:47 0 1010 0 0 N 0 74.3 688
21:49:45 0 1010 0 0 N 0 74.4 687
21:52:44 0 1010 0 0 N 0 74.6 690
21:55:44 -1 1010 0 0 N 0 74.6 697
21:58:46 0 1010 0 0 N 0 74.8 696
22:01:47 -1 1010 0 0 N 0 75.6 697
22:04:47 -1 1010 0 0 N 0 75.9 688
22:07:49 0 1010 0 0 N 0 76.2 686
22:10:45 0 1010 0 0 N 0 76.4 692
22:13:48 0 1010 0 0 N 0 76.7 688
22:16:49 0 1010 0 0 N 0 76.1 693
22:19:45 -1 1010 0 0 N 0 75.9 697
22:22:46 -1 1010 0 0 N 0 75.9 697
22:25:47 -1 1010 0 0 N 0 76 697
22:28:47 -1 1010 0 0 N 0 76.4 697
22:31:47 0 1010 0 0 N 0 76.8 697
22:34:46 0 1010 0 0 N 0 76.8 697
22:37:46 0 1010 0 0 N 0 76.6 700
22:40:47 0 1010 0 0 N 0 76.5 707
22:43:45 0 1010 0 0 N 0 76 705
22:46:47 -1 1010 0 0 N 0 75.6 700
22:49:45 -1 1010 0 0 N 0 75.6 700
22:52:46 -1 1010 0 0 N 0 76 707
22:55:45 0 1010 0 0 N 0 76.7 715
22:58:46 -1 1010 0 0 N 0 77.1 710
23:01:48 -1 1010 0 0 N 0 76.9 704
23:04:45 -1 1010 0 0 N 0 76.9 712
23:07:47 -1 1010 0 0 N 0 76.7 718
23:10:46 -1 1010 0 0 N 0 76.7 715
23:13:46 -1 1010 0 0 O 0 77.3 707
23:16:47 -1 1010 0 0 NO 0 78.1 708
23:19:47 -1 1010 0 0 NO 0 78.1 712
23:22:50 -1 1010 0 0 NO 0 77.4 715
23:25:48 -1 1010 0 0 NO 0 77.3 710
23:28:47 -1 1010 0 0 S 0 77.3 702
23:31:47 -1 1010 0 0 S 0 77.3 713
23:34:46 -1 1010 0 0 S 0 77 715
23:37:45 -1 1010 0 0 S 0 76.8 723
23:40:46 -1 1010 0 0 S 0 76.5 709
23:43:46 -1 1011 0 0 S 0 76.4 715
23:46:46 0 1010 0 0 S 0 76.6 711
23:49:48 0 1010 0 0 NO 0 76.6 709
23:52:46 -1 1010 0 0 NO 0 76.3 703
23:55:47 -1 1010 0 0 NO 0 76.3 703
23:58:45 -1 1010 0 0 NO 0 76.7 713

Letzte Änderung : 22-Jul-2022
Copyright Jens Köhler, Wolfsburg, Obere Dorfstraße 10d